Green Cape Observation History
Time Wind Speed Temp Pressure Rel. Hum Rain
14/11:00am WSW 23-33 kts 14.7°c 1009.9 hPa 62% 0.0mm
14/10:54am WSW 22-33 kts 14.5°c 1009.9 hPa 62% 0.0mm
14/10:30am WSW 20-27 kts 14.4°c 1010.3 hPa 63% 0.0mm
14/10:00am W 13-17 kts 13.5°c 1010.3 hPa 65% 0.0mm
14/09:30am WNW 8-11 kts 13.2°c 1010.1 hPa 68% 0.0mm
14/09:00am NW 5-7 kts 13.1°c 1010.2 hPa 69% 0.0mm
14/08:30am NNW 3-5 kts 12.6°c 1010.2 hPa 72% 0.0mm
14/08:00am WNW 6-11 kts 11.9°c 1010.1 hPa 76% 0.0mm
14/07:30am NNW 4-7 kts 11.2°c 1009.8 hPa 75% 0.0mm
14/07:00am W 9-13 kts 11.5°c 1009.6 hPa 75% 0.0mm
14/06:30am WSW 15-19 kts 11.6°c 1009.4 hPa 75% 0.0mm
14/06:00am SW 17-21 kts 11.4°c 1008.8 hPa 76% 0.0mm
14/05:30am WSW 18-23 kts 11.7°c 1008.8 hPa 76% 0.0mm
14/05:00am WSW 19-26 kts 11.8°c 1008.9 hPa 77% 0.0mm
14/04:30am WSW 16-22 kts 11.9°c 1008.7 hPa 78% 0.0mm
14/04:00am WSW 19-27 kts 12.1°c 1008.6 hPa 78% 0.0mm
14/03:45am WSW 19-30 kts 12.1°c 1008.5 hPa 78% 0.0mm
14/03:30am WSW 15-22 kts 12.2°c 1008.6 hPa 78% 0.0mm
14/03:00am WSW 15-20 kts 12.4°c 1009.0 hPa 78% 0.0mm
14/02:30am WSW 19-28 kts 12.9°c 1009.0 hPa 81% 0.0mm
14/02:00am WSW 17-21 kts 12.9°c 1008.9 hPa 81% 0.0mm
14/01:30am WSW 21-26 kts 13.0°c 1008.8 hPa 82% 0.0mm
14/01:00am SW 21-27 kts 13.5°c 1008.9 hPa 84% 0.0mm
14/12:30am WSW 24-29 kts 13.7°c 1008.6 hPa 84% 0.0mm
14/12:00am WSW 25-31 kts 14.2°c 1008.4 hPa 83% 0.0mm
Time Wind Speed Temp Pressure Rel. Hum Rain
13/11:30pm SW 21-25 kts 14.6°c 1008.2 hPa 82% 0.0mm
13/11:00pm SW 16-21 kts 14.9°c 1008.5 hPa 81% 0.0mm
13/10:30pm WSW 18-23 kts 15.4°c 1008.6 hPa 80% 0.0mm
13/10:00pm WSW 16-19 kts 16.0°c 1008.4 hPa 77% 0.0mm
13/09:30pm WSW 15-21 kts 16.9°c 1008.3 hPa 74% 0.0mm
13/09:27pm WSW 12-21 kts 16.7°c 1008.3 hPa 77% 0.0mm
13/09:00pm WSW 8-10 kts 15.8°c 1008.1 hPa 79% 0.0mm
13/08:30pm WNW 4-8 kts 15.5°c 1008.1 hPa 80% 0.0mm
13/08:00pm WNW 3-5 kts 15.8°c 1008.1 hPa 79% 0.0mm
13/07:30pm WNW 2-3 kts 16.7°c 1008.0 hPa 76% 0.0mm
13/07:00pm WNW 3-4 kts 16.5°c 1008.0 hPa 84% 0.0mm
13/06:30pm WNW 2-5 kts 16.5°c 1007.7 hPa 84% 0.0mm
13/06:00pm NE 2-4 kts 16.8°c 1007.6 hPa 81% 0.0mm
13/05:30pm NE 4-5 kts 17.6°c 1007.2 hPa 79% 0.0mm
13/05:00pm ENE 3 kts 17.8°c 1007.4 hPa 79% 0.0mm
13/04:30pm NNE 2-3 kts 17.7°c 1008.0 hPa 79% 0.0mm
13/04:00pm NNE 1-2 kts 17.8°c 1008.3 hPa 79% 0.0mm
13/03:30pm NNE 3 kts 18.3°c 1008.1 hPa 80% 0.0mm
13/03:00pm NNE 3-4 kts 19.2°c 1008.4 hPa 80% 0.0mm
13/02:30pm NNE 4-5 kts 19.0°c 1008.5 hPa 80% 0.0mm
13/02:00pm NNE 4-5 kts 18.9°c 1008.6 hPa 78% 0.0mm
13/01:30pm NNE 5-6 kts 19.9°c 1008.9 hPa 76% 0.0mm
13/01:00pm NNE 5-6 kts 19.8°c 1009.3 hPa 77% 0.0mm
13/12:30pm NNE 5-6 kts 20.0°c 1009.7 hPa 76% 0.0mm
13/12:00pm N 4-5 kts 19.9°c 1010.4 hPa 77% 0.0mm
13/11:30am NNE 5 kts 19.6°c 1011.1 hPa 79% 0.0mm
13/11:00am N 3-5 kts 19.5°c 1011.7 hPa 78% 0.0mm
13/10:30am NW 2-5 kts 18.7°c 1012.2 hPa 79% 0.0mm
13/10:00am WNW 6-8 kts 16.8°c 1012.6 hPa 81% 0.0mm
13/09:30am WNW 9-11 kts 15.7°c 1012.7 hPa 86% 0.0mm
13/09:00am W 4-7 kts 15.1°c 1013.1 hPa 90% 0.2mm
13/08:30am W 6-8 kts 14.2°c 1013.2 hPa 92% 0.2mm
13/08:00am W 9-11 kts 14.3°c 1013.2 hPa 92% 0.2mm
13/07:30am W 12-14 kts 14.0°c 1013.5 hPa 94% 0.2mm
13/07:00am WNW 10-13 kts 14.1°c 1013.7 hPa 94% 0.2mm
13/06:30am W 13-14 kts 14.1°c 1013.9 hPa 97% 0.2mm
13/06:00am W 9-10 kts 13.9°c 1013.9 hPa 98% 0.2mm
13/05:30am W 9 kts 13.9°c 1014.0 hPa 98% 0.2mm
13/05:00am W 10-11 kts 14.3°c 1014.1 hPa 98% 0.0mm
13/04:30am W 10-12 kts 14.4°c 1014.3 hPa 99% 0.0mm
13/04:00am W 10-12 kts 13.9°c 1014.8 hPa 99% 0.0mm
13/03:30am W 8-9 kts 14.2°c 1015.0 hPa 99% 0.0mm
13/03:00am W 7-8 kts 14.3°c 1015.3 hPa 99% 0.0mm
13/02:30am W 7-9 kts 14.6°c 1015.6 hPa 99% 0.0mm
13/02:00am W 8-9 kts 14.5°c 1015.9 hPa 99% 0.0mm
13/01:30am W 8-10 kts 14.5°c 1016.2 hPa 99% 0.0mm
13/01:00am W 9-10 kts 14.7°c 1016.7 hPa 99% 0.0mm
13/12:30am W 7-8 kts 14.9°c 1017.2 hPa 99% 0.0mm
13/12:00am W 7-8 kts 15.1°c 1017.8 hPa 98% 0.0mm
Time Wind Speed Temp Pressure Rel. Hum Rain
12/11:30pm W 10-12 kts 15.0°c 1018.2 hPa 98% 0.0mm
12/11:00pm W 9-11 kts 15.3°c 1018.3 hPa 98% 0.0mm
12/10:30pm W 7-9 kts 15.5°c 1018.5 hPa 98% 0.0mm
12/10:00pm WNW 6-8 kts 15.7°c 1018.6 hPa 98% 0.0mm
12/09:30pm W 6-8 kts 15.7°c 1019.0 hPa 98% 0.0mm
12/09:00pm W 6-7 kts 15.7°c 1019.3 hPa 98% 0.0mm
12/08:30pm W 7 kts 15.7°c 1019.2 hPa 97% 0.0mm
12/08:00pm W 8-9 kts 16.0°c 1019.0 hPa 96% 0.0mm
12/07:30pm SW 7-8 kts 16.8°c 1019.0 hPa 96% 0.0mm
12/07:00pm SSW 7-8 kts 16.6°c 1019.0 hPa 96% 0.0mm
12/06:30pm SW 6-7 kts 16.8°c 1019.1 hPa 95% 0.0mm
12/06:00pm SSW 10-12 kts 16.6°c 1019.1 hPa 95% 0.0mm
12/05:30pm SW 8-10 kts 16.9°c 1019.2 hPa 94% 0.0mm
12/05:00pm SW 9-10 kts 17.0°c 1019.3 hPa 94% 0.0mm
12/04:30pm SSW 9-11 kts 17.1°c 1019.1 hPa 93% 0.0mm
12/04:00pm S 6-7 kts 17.8°c 1019.2 hPa 92% 0.0mm
12/03:30pm S 6-7 kts 18.5°c 1019.2 hPa 91% 0.0mm
12/03:00pm S 5-6 kts 18.2°c 1019.4 hPa 90% 0.0mm
12/02:30pm SSE 7-11 kts 19.1°c 1019.3 hPa 91% 0.0mm
12/02:00pm SE 8-9 kts 18.7°c 1019.6 hPa 91% 0.0mm
12/01:30pm ESE 9-11 kts 17.6°c 1020.1 hPa 92% 0.0mm
12/01:00pm ESE 8-10 kts 18.0°c 1020.5 hPa 90% 0.0mm
12/12:30pm SE 8-10 kts 18.3°c 1020.5 hPa 94% 0.0mm
12/12:00pm E 10-12 kts 17.6°c 1020.7 hPa 95% 0.0mm
12/11:30am ESE 7-9 kts 17.6°c 1020.6 hPa 96% 0.0mm
12/11:00am ESE 6-9 kts 17.1°c 1021.6 hPa 97% 0.0mm
12/10:30am SE 10-12 kts 17.2°c 1021.5 hPa 96% 0.0mm
12/10:00am SE 9-11 kts 17.1°c 1021.8 hPa 96% 0.0mm
12/09:30am ESE 8-11 kts 17.2°c 1021.5 hPa 99% 0.0mm
12/09:00am ESE 10-13 kts 16.4°c 1021.5 hPa 100% 68.8mm
12/08:30am SE 15-17 kts 16.1°c 1021.1 hPa 100% 68.8mm
12/08:00am SE 16-20 kts 16.6°c 1021.3 hPa 100% 68.0mm
12/07:30am SE 17-20 kts 16.5°c 1021.2 hPa 100% 67.6mm
12/07:00am SE 18-20 kts 16.3°c 1020.7 hPa 100% 67.6mm
12/06:30am SE 20-24 kts 15.8°c 1020.6 hPa 100% 67.4mm
12/06:00am SSE 26-32 kts 16.2°c 1020.1 hPa 100% 66.4mm
12/05:30am SSE 20-29 kts 15.4°c 1020.6 hPa 100% 62.2mm
12/05:23am S 19-30 kts 15.5°c 1020.7 hPa 100% 57.2mm
12/05:00am SSE 27-32 kts 15.8°c 1020.5 hPa 99% 46.4mm
12/04:30am SSE 24-29 kts 15.7°c 1020.9 hPa 98% 43.2mm
12/04:00am SSE 25-30 kts 15.7°c 1020.9 hPa 98% 40.2mm
12/03:30am SSE 27-32 kts 15.6°c 1020.8 hPa 97% 37.8mm
12/03:00am SSE 27-33 kts 15.7°c 1020.8 hPa 95% 35.0mm
12/02:30am SSE 28-33 kts 16.0°c 1020.8 hPa 93% 34.4mm
12/02:00am SSE 27-33 kts 16.2°c 1020.8 hPa 91% 34.0mm
12/01:30am SSE 27-31 kts 16.1°c 1020.9 hPa 91% 34.0mm
12/01:00am SSE 26-31 kts 16.2°c 1021.1 hPa 91% 33.8mm
12/12:30am SSE 26-30 kts 16.0°c 1021.1 hPa 91% 33.8mm
12/12:00am SSE 26-31 kts 16.1°c 1021.3 hPa 90% 33.6mm